Flag for Germany Weather past 2 weeks in Braunschweig, Lower Saxony, Germany

Now
68 °F

Cloudy.


Feels Like: 68 °F
Forecast: 52 / 67 °F
Wind: 12 mph from West

Location: Braunschweig

Current Time: Sep 1, 2015 at 10:57:28 AM

Latest Report: Sep 1, 2015 at 10:20 AM


Visibility: N/A

Pressure: 29.80 "Hg

Humidity: 73%

Dew point: 59 °F

Location of BraunschweigLocation

Historic Weather in Braunschweig — Graph

°F

Braunschweig temperature yesterday

Maximum temperature yesterday: 91 °F (at 4:50 PM)
Minimum temperature yesterday: 66 °F (at 6:20 AM)
Average temperature yesterday: 81 °F

Past Weeks' High & Low Weather Summary

 TemperatureHumidityPressure
High91 °F (Aug 31, 4:50 PM)100% (Aug 17, 9:20 AM)30.30 "Hg (Aug 17, 9:20 AM)
Low50 °F (Aug 21, 6:50 AM)30% (Aug 21, 2:50 PM)29.65 "Hg (Aug 24, 5:20 PM)
Average68 °F74%29.98 "Hg
* Reported Aug 17 9:20 AM — Sep 1 9:20 AM, Braunschweig, Weather by CustomWeather, © 2015

Note: Actual official high and low records may vary slightly from our data, if they occured in-between our weather recording intervals... More about our weather records

Advertising

Braunschweig weather history for previous 24 hours

 ConditionsComfort  
Time TempWeatherWind HumidityBarometerVisibility
9:20 AM
Tue, Sep 1
70 °FBroken clouds.12 mph78%29.77 "HgN/A
8:50 AM70 °FPartly sunny.12 mph78%29.77 "HgN/A
8:20 AM70 °FPartly sunny.10 mph83%29.77 "HgN/A
7:50 AM70 °FScattered clouds.6 mph88%29.77 "HgN/A
7:20 AM68 °FOvercast.6 mph94%29.77 "HgN/A
6:50 AM68 °FOvercast.5 mph94%29.77 "HgN/A
9:50 PM
Mon, Aug 31
81 °FClear.10 mph45%29.74 "Hg10 mi
9:20 PM82 °FClear.9 mph42%29.74 "Hg10 mi
8:50 PM82 °FSunny.7 mph45%29.74 "Hg10 mi
8:20 PM82 °FSunny.7 mph45%29.74 "Hg10 mi
7:50 PM86 °FSunny.8 mph46%29.74 "Hg10 mi
7:20 PM88 °FWarm.9 mph43%29.74 "HgN/A
6:50 PM90 °FSunny.10 mph38%29.77 "Hg10 mi
6:20 PM90 °FSunny.8 mph38%29.77 "Hg10 mi
5:50 PM91 °FSunny.10 mph34%29.77 "Hg10 mi
5:20 PM91 °FSunny.13 mph41%29.77 "Hg10 mi
4:50 PM91 °FSunny.8 mph44%29.77 "Hg10 mi
4:20 PM90 °FSunny.8 mph49%29.80 "Hg10 mi
3:50 PM90 °FSunny.8 mph52%29.80 "Hg10 mi
3:20 PM90 °FSunny.8 mph52%29.83 "Hg10 mi
2:50 PM88 °FSunny.10 mph59%29.83 "Hg10 mi
2:20 PM88 °FPassing clouds.10 mph62%29.86 "HgN/A
1:50 PM84 °FPassing clouds.7 mph66%29.86 "HgN/A
1:20 PM84 °FPassing clouds.9 mph66%29.89 "HgN/A
12:50 PM82 °FPassing clouds.7 mph66%29.89 "HgN/A
12:20 PM82 °FPassing clouds.5 mph66%29.92 "HgN/A
11:50 AM81 °FPassing clouds.9 mph70%29.92 "HgN/A
11:20 AM79 °FPassing clouds.7 mph70%29.92 "HgN/A
10:50 AM77 °FPassing clouds.7 mph83%29.92 "HgN/A
10:20 AM73 °FSunny.8 mph100%29.92 "Hg10 mi
Weather by CustomWeather, © 2015

See weather overviewHow to use our weather pages